Weather History for Wauseon Fulton County Airport, OH

Change the Weather History Date:

Friday, January 3, 2014

  Actual Average (KTOL) Record (KTOL)
Temperature  
Mean Temperature 4 °F 26 °F  
Max Temperature 12 °F 33 °F 61 °F (1950)
Min Temperature -5 °F 19 °F -12 °F (1879)
Degree Days  
Heating Degree Days 62 39  
Month to date heating degree days 117  
Since 1 July heating degree days 2442  
Cooling Degree Days 0 0  
Month to date cooling degree days 0  
Year to date cooling degree days 0  
Moisture  
Dew Point -6 °F    
Average Humidity 64    
Maximum Humidity 77    
Minimum Humidity 52    
Precipitation  
Precipitation 0.00 in 0.08 in 0.79 in (2005)
Month to date precipitation 0.23  
Year to date precipitation 0.23  
Snow  
Snow 0.00 in 0.30 in - ()
Month to date snowfall 1.0  
Since 1 July snowfall 10.5  
Snow Depth -    
Sea Level Pressure  
Sea Level Pressure 30.34 in    
Wind  
Wind Speed 9 mph (WSW)    
Max Wind Speed 16 mph    
Max Gust Speed 22 mph    
Visibility 10 miles    
Events      
T = Trace of Precipitation, MM = Missing Value Source: NWS Daily Summary

Daily Weather History Graph

Daily Weather History Graph

Search for Another Location

Airport:

Trip Planner

Search our weather history database for the weather conditions in past years. The results will help you decide how hot, cold, wet, or windy it might be!

Date:

Astronomy

Jan. 03, 2014 Rise Set
Actual Time 8:03 AM EST 5:18 PM EST
Civil Twilight 7:32 AM EST 5:50 PM EST
Nautical Twilight 6:57 AM EST 6:24 PM EST
Astronomical Twilight 6:23 AM EST 6:58 PM EST
Moon 9:26 AM EST (1/3) 8:29 PM EST (1/3)
Length of Visible Light 10h 17m
Length of Day
9h 15m
Waxing Crescent, 8% of the Moon is Illuminated
Jan 3
Waxing Crescent
Jan 7
First Quarter
Jan 15
Full
Jan 24
Last Quarter
Jan 30
New

Hourly Weather History & Observations

Time (EST) Temp. Windchill Dew Point Humidity Pressure Visibility Wind Dir Wind Speed Gust Speed Precip Events Conditions
12:15 AM 5.0 °F -12.3 °F -7.6 °F 56% 30.26 in 10.0 mi NNW 13.8 mph 20.7 mph N/A   Clear
12:35 AM 3.2 °F -15.3 °F -7.6 °F 61% 30.28 in 10.0 mi NNW 15.0 mph 20.7 mph N/A   Clear
12:55 AM 3.2 °F -13.1 °F -7.6 °F 61% 30.29 in 10.0 mi NNW 11.5 mph - N/A   Clear
1:15 AM 3.2 °F -11.3 °F -7.6 °F 61% 30.29 in 10.0 mi NNW 9.2 mph - N/A   Clear
1:35 AM 1.4 °F -13.5 °F -7.6 °F 66% 30.29 in 10.0 mi NNW 9.2 mph - N/A   Clear
1:55 AM 1.4 °F -12.5 °F -9.4 °F 61% 30.30 in 10.0 mi NW 8.1 mph - N/A   Clear
2:15 AM -0.4 °F -13.4 °F -9.4 °F 66% 30.31 in 10.0 mi NW 6.9 mph - N/A   Clear
2:35 AM -2.2 °F -15.6 °F -9.4 °F 71% 30.31 in 10.0 mi NW 6.9 mph - N/A   Clear
2:55 AM -0.4 °F -14.7 °F -9.4 °F 66% 30.33 in 10.0 mi NW 8.1 mph - N/A   Clear
3:15 AM -2.2 °F -16.8 °F -11.2 °F 66% 30.34 in 10.0 mi WNW 8.1 mph - N/A   Clear
3:35 AM -4.0 °F -17.8 °F -11.2 °F 71% 30.35 in 10.0 mi WNW 6.9 mph - N/A   Clear
3:55 AM -4.0 °F -19.0 °F -11.2 °F 71% 30.35 in 10.0 mi WNW 8.1 mph - N/A   Clear
4:15 AM -4.0 °F -19.0 °F -11.2 °F 71% 30.35 in 10.0 mi NW 8.1 mph - N/A   Clear
4:35 AM -4.0 °F -19.0 °F -11.2 °F 71% 30.36 in 10.0 mi NW 8.1 mph - N/A   Clear
4:55 AM -5.8 °F -22.4 °F -11.2 °F 77% 30.35 in 10.0 mi NW 9.2 mph - N/A   Clear
5:15 AM -4.0 °F -20.2 °F -11.2 °F 71% 30.36 in 10.0 mi NNW 9.2 mph - N/A   Clear
5:35 AM -5.8 °F -22.4 °F -11.2 °F 77% 30.36 in 10.0 mi NW 9.2 mph - N/A   Clear
5:55 AM -4.0 °F -19.0 °F -11.2 °F 71% 30.37 in 10.0 mi NW 8.1 mph - N/A   Clear
6:15 AM -4.0 °F -16.3 °F -11.2 °F 71% 30.37 in 10.0 mi NW 5.8 mph - N/A   Clear
6:35 AM -4.0 °F -16.3 °F -11.2 °F 71% 30.38 in 10.0 mi NW 5.8 mph - N/A   Clear
6:55 AM -4.0 °F -16.3 °F -11.2 °F 71% 30.38 in 10.0 mi NNW 5.8 mph - N/A   Clear
7:15 AM -4.0 °F -14.6 °F -11.2 °F 71% 30.39 in 10.0 mi North 4.6 mph - N/A   Clear
7:35 AM -2.2 °F -14.2 °F -11.2 °F 66% 30.40 in 10.0 mi NNW 5.8 mph - N/A   Clear
7:55 AM -2.2 °F -10.4 °F -11.2 °F 66% 30.39 in 10.0 mi NNE 3.5 mph - N/A   Clear
8:15 AM -5.8 °F - -13.0 °F 71% 30.40 in 10.0 mi Calm Calm - N/A   Clear
8:35 AM -5.8 °F - -13.0 °F 71% 30.40 in 10.0 mi Calm Calm - N/A   Clear
8:55 AM -4.0 °F - -11.2 °F 71% 30.41 in 9.0 mi Calm Calm - N/A   Clear
9:15 AM -4.0 °F -12.4 °F -11.2 °F 71% 30.42 in 10.0 mi SW 3.5 mph - N/A   Clear
9:35 AM -4.0 °F -17.8 °F -11.2 °F 71% 30.43 in 10.0 mi WSW 6.9 mph - N/A   Clear
9:55 AM -2.2 °F -16.8 °F -11.2 °F 66% 30.44 in 10.0 mi WSW 8.1 mph - N/A   Clear
10:15 AM -2.2 °F -15.6 °F -11.2 °F 66% 30.44 in 10.0 mi West 6.9 mph - N/A   Clear
10:35 AM -0.4 °F -12.0 °F -9.4 °F 66% 30.44 in 10.0 mi WSW 5.8 mph - N/A   Clear
10:55 AM 1.4 °F -11.3 °F -9.4 °F 61% 30.45 in 10.0 mi WSW 6.9 mph - N/A   Clear
11:15 AM 1.4 °F -11.3 °F -7.6 °F 66% 30.44 in 10.0 mi West 6.9 mph - N/A   Clear
11:35 AM 3.2 °F -10.3 °F -7.6 °F 61% 30.44 in 10.0 mi West 8.1 mph - N/A   Clear
11:55 AM 3.2 °F -7.8 °F -7.6 °F 61% 30.43 in 10.0 mi West 5.8 mph - N/A   Clear
12:15 PM 5.0 °F -5.6 °F -5.8 °F 61% 30.42 in 10.0 mi West 5.8 mph - N/A   Clear
12:35 PM 6.8 °F -5.9 °F -5.8 °F 56% 30.42 in 10.0 mi West 8.1 mph - N/A   Clear
12:55 PM 6.8 °F -2.0 °F -5.8 °F 56% 30.40 in 10.0 mi West 4.6 mph - N/A   Clear
1:15 PM 8.6 °F -1.3 °F -5.8 °F 52% 30.40 in 10.0 mi WSW 5.8 mph - N/A   Clear
1:35 PM 8.6 °F -3.7 °F -5.8 °F 52% 30.39 in 10.0 mi SW 8.1 mph - N/A   Clear
1:55 PM 8.6 °F -4.7 °F -5.8 °F 52% 30.38 in 10.0 mi SW 9.2 mph - N/A   Clear
2:15 PM 8.6 °F -5.5 °F -5.8 °F 52% 30.38 in 10.0 mi SW 10.4 mph - N/A   Clear
2:35 PM 8.6 °F -4.7 °F -5.8 °F 52% 30.38 in 10.0 mi SW 9.2 mph - N/A   Clear
2:55 PM 8.6 °F -5.5 °F -4.0 °F 57% 30.38 in 10.0 mi SW 10.4 mph - N/A   Clear
3:15 PM 10.4 °F -1.5 °F -4.0 °F 52% 30.38 in 10.0 mi SSW 8.1 mph - N/A   Clear
3:35 PM 10.4 °F -1.5 °F -4.0 °F 52% 30.37 in 10.0 mi SSW 8.1 mph - N/A   Clear
3:55 PM 10.4 °F -1.5 °F -4.0 °F 52% 30.35 in 10.0 mi SSW 8.1 mph - N/A   Clear
4:15 PM 8.6 °F -5.5 °F -2.2 °F 62% 30.35 in 10.0 mi South 10.4 mph - N/A   Clear
4:35 PM 8.6 °F -7.0 °F -4.0 °F 57% 30.34 in 10.0 mi South 12.7 mph - N/A   Clear
4:55 PM 6.8 °F -7.8 °F -4.0 °F 61% 30.33 in 10.0 mi South 10.4 mph - N/A   Clear
5:15 PM 6.8 °F -7.8 °F -4.0 °F 61% 30.34 in 10.0 mi South 10.4 mph - N/A   Mostly Cloudy
5:35 PM 6.8 °F -8.6 °F -2.2 °F 67% 30.32 in 10.0 mi South 11.5 mph - N/A   Overcast
5:55 PM 8.6 °F -7.0 °F -2.2 °F 62% 30.32 in 10.0 mi South 12.7 mph - N/A   Overcast
6:15 PM 8.6 °F -4.7 °F -2.2 °F 62% 30.31 in 10.0 mi South 9.2 mph - N/A   Overcast
6:35 PM 8.6 °F -7.0 °F -2.2 °F 62% 30.30 in 10.0 mi South 12.7 mph - N/A   Overcast
6:55 PM 8.6 °F -6.3 °F -0.4 °F 67% 30.29 in 10.0 mi South 11.5 mph - N/A   Overcast
7:15 PM 8.6 °F -6.3 °F -0.4 °F 67% 30.29 in 10.0 mi South 11.5 mph - N/A   Overcast
7:35 PM 10.4 °F -3.3 °F -0.4 °F 62% 30.29 in 10.0 mi South 10.4 mph - N/A   Overcast
7:55 PM 10.4 °F -4.1 °F -0.4 °F 62% 30.28 in 10.0 mi SSE 11.5 mph - N/A   Overcast
8:15 PM 10.4 °F -4.8 °F 1.4 °F 67% 30.27 in 10.0 mi South 12.7 mph - N/A   Overcast
8:35 PM 10.4 °F -5.4 °F 1.4 °F 67% 30.26 in 10.0 mi South 13.8 mph - N/A   Overcast
8:55 PM 10.4 °F -5.4 °F 1.4 °F 67% 30.25 in 10.0 mi South 13.8 mph - N/A   Overcast
9:15 PM 12.2 °F -4.3 °F 1.4 °F 62% 30.23 in 10.0 mi South 16.1 mph - N/A   Scattered Clouds
9:35 PM 12.2 °F -3.1 °F 1.4 °F 62% 30.22 in 10.0 mi South 13.8 mph - N/A   Clear
9:55 PM 12.2 °F -4.3 °F 1.4 °F 62% 30.21 in 10.0 mi South 16.1 mph - N/A   Scattered Clouds
10:15 PM 12.2 °F -3.1 °F 1.4 °F 62% 30.21 in 10.0 mi South 13.8 mph - N/A   Partly Cloudy
10:35 PM 12.2 °F -3.1 °F 1.4 °F 62% 30.20 in 10.0 mi South 13.8 mph - N/A   Clear
10:55 PM 12.2 °F -3.7 °F 1.4 °F 62% 30.18 in 10.0 mi South 15.0 mph 21.9 mph N/A   Clear
11:15 PM 10.4 °F -5.4 °F 1.4 °F 67% 30.17 in 10.0 mi South 13.8 mph - N/A   Clear
11:35 PM 10.4 °F -5.4 °F 1.4 °F 67% 30.17 in 10.0 mi South 13.8 mph - N/A   Clear
11:55 PM 8.6 °F -7.0 °F -0.4 °F 67% 30.16 in 10.0 mi South 12.7 mph - N/A   Clear